Change the Weather History Date:

Thursday, May 30, 2013

  Actual Average Record
Temperature  
Mean Temperature 67 °F -  
Max Temperature 73 °F 74 °F 91 °F (2002)
Min Temperature 62 °F 51 °F 39 °F (1997)
Cooling Degree Days 2    
Growing Degree Days 17 (Base 50)    
Moisture  
Dew Point 61 °F    
Average Humidity 80    
Maximum Humidity 94    
Minimum Humidity 66    
Precipitation  
Precipitation 0.09 in - - ()
Sea Level Pressure  
Sea Level Pressure 29.54 in    
Wind  
Wind Speed 17 mph (South)    
Max Wind Speed 31 mph    
Max Gust Speed 43 mph    
Visibility 10 miles    
Events Rain , Thunderstorm    
Averages and records for this station are not official NWS values.
T = Trace of Precipitation, MM = Missing Value Source: NWS Daily Summary

Daily Weather History Graph

Daily Weather History Graph

Search for Another Location

Airport or City:

Trip Planner

Search our weather history database for the weather conditions in past years. The results will help you decide how hot, cold, wet, or windy it might be!

Date:

Astronomy

May. 30, 2013 Rise Set
Actual Time 5:44 AM CDT 8:52 PM CDT
Civil Twilight 5:10 AM CDT 9:27 PM CDT
Nautical Twilight 4:26 AM CDT 10:11 PM CDT
Astronomical Twilight 3:33 AM CDT 11:04 PM CDT
Moon 12:48 AM CDT (5/30) 12:00 PM CDT (5/30)
Length of Visible Light 16h 16m
Length of Day
15h 07m
Waning Gibbous, 62% of the Moon is Illuminated
May 30
Waning Gibbous
May 31
Last Quarter
Jun 8
New
Jun 16
First Quarter
Jun 23
Full

Hourly Weather History & Observations

Time (CDT) Temp. Dew Point Humidity Pressure Visibility Wind Dir Wind Speed Gust Speed Precip Events Conditions
12:53 AM 63.0 °F 61.0 °F 93% 29.59 in 10.0 mi SSE 9.2 mph - N/A   Clear
1:53 AM 64.9 °F 62.1 °F 90% 29.53 in 10.0 mi SE 17.3 mph 25.3 mph 0.00 in   Partly Cloudy
2:53 AM 64.9 °F 62.1 °F 90% 29.52 in 10.0 mi SE 13.8 mph 21.9 mph N/A   Partly Cloudy
3:53 AM 64.0 °F 60.1 °F 87% 29.48 in 10.0 mi SE 31.1 mph 42.6 mph 0.01 in Rain Light Rain
4:53 AM 64.0 °F 61.0 °F 90% 29.44 in 10.0 mi SE 20.7 mph 27.6 mph 0.02 in   Scattered Clouds
5:40 AM 64.4 °F 62.6 °F 94% 29.52 in 10.0 mi South 19.6 mph - N/A   Overcast
5:53 AM 64.9 °F 62.1 °F 90% 29.50 in 10.0 mi South 21.9 mph 28.8 mph N/A   Overcast
6:53 AM 64.9 °F 61.0 °F 87% 29.54 in 10.0 mi South 18.4 mph - N/A   Overcast
7:22 AM 64.4 °F 60.8 °F 88% 29.55 in 10.0 mi SSW 17.3 mph 25.3 mph N/A   Overcast
7:30 AM 64.4 °F 60.8 °F 88% 29.55 in 10.0 mi SSW 15.0 mph 23.0 mph N/A   Overcast
7:37 AM 66.2 °F 60.8 °F 83% 29.55 in 10.0 mi SSW 15.0 mph 20.7 mph N/A   Overcast
7:53 AM 66.0 °F 61.0 °F 84% 29.54 in 10.0 mi SSW 12.7 mph - N/A   Overcast
8:53 AM 66.9 °F 62.1 °F 84% 29.57 in 10.0 mi SSW 15.0 mph 25.3 mph N/A   Mostly Cloudy
9:00 AM 68.0 °F 62.6 °F 83% 29.59 in 10.0 mi South 20.7 mph 25.3 mph N/A   Mostly Cloudy
9:26 AM 68.0 °F 60.8 °F 78% 29.58 in 10.0 mi SSW 19.6 mph 26.5 mph N/A   Scattered Clouds
9:35 AM 68.0 °F 60.8 °F 78% 29.58 in 10.0 mi SSW 18.4 mph - N/A   Mostly Cloudy
9:53 AM 69.1 °F 60.1 °F 73% 29.56 in 10.0 mi South 20.7 mph 27.6 mph N/A   Mostly Cloudy
10:50 AM 69.8 °F 60.8 °F 73% 29.57 in 10.0 mi South 23.0 mph 29.9 mph N/A   Mostly Cloudy
10:53 AM 69.1 °F 60.1 °F 73% 29.56 in 10.0 mi South 19.6 mph 29.9 mph N/A   Mostly Cloudy
11:19 AM 69.8 °F 60.8 °F 73% 29.58 in 10.0 mi South 21.9 mph - N/A   Mostly Cloudy
11:35 AM 69.8 °F 60.8 °F 73% 29.58 in 10.0 mi South 18.4 mph 27.6 mph N/A   Mostly Cloudy
11:53 AM 70.0 °F 60.1 °F 71% 29.56 in 10.0 mi South 21.9 mph 26.5 mph N/A   Mostly Cloudy
12:53 PM 68.0 °F 59.0 °F 73% 29.55 in 10.0 mi South 18.4 mph - N/A   Overcast
1:53 PM 66.0 °F 59.0 °F 78% 29.55 in 10.0 mi SSE 18.4 mph 25.3 mph 0.00 in   Overcast
2:53 PM 68.0 °F 60.1 °F 76% 29.52 in 10.0 mi SSE 17.3 mph - N/A   Mostly Cloudy
3:19 PM 69.8 °F 60.8 °F 73% 29.54 in 10.0 mi South 12.7 mph 20.7 mph N/A   Overcast
3:53 PM 70.0 °F 60.1 °F 71% 29.51 in 10.0 mi South 15.0 mph - N/A   Overcast
4:33 PM 71.6 °F 62.6 °F 73% 29.52 in 10.0 mi South 16.1 mph - N/A   Mostly Cloudy
4:53 PM 72.0 °F 60.1 °F 66% 29.51 in 10.0 mi South 17.3 mph - N/A   Mostly Cloudy
5:53 PM 70.0 °F 62.1 °F 76% 29.49 in 10.0 mi South 16.1 mph - N/A   Clear
6:53 PM 70.0 °F 62.1 °F 76% 29.49 in 10.0 mi SSE 15.0 mph - N/A   Clear
7:53 PM 69.1 °F 63.0 °F 81% 29.50 in 10.0 mi SSE 11.5 mph - N/A   Clear
8:53 PM 68.0 °F 62.1 °F 81% 29.52 in 10.0 mi South 11.5 mph - N/A   Clear
10:53 PM 66.0 °F 61.0 °F 84% 29.55 in 10.0 mi South 17.3 mph - N/A   Scattered Clouds
11:25 PM 62.6 °F 53.6 °F 72% 29.60 in 10.0 mi SW 21.9 mph 34.5 mph 0.01 in Rain , Thunderstorm Light Rain
11:37 PM 62.6 °F 53.6 °F 72% 29.59 in 6.0 mi SSW 15.0 mph - 0.04 in Rain Rain
11:53 PM 62.1 °F 55.0 °F 78% 29.58 in 10.0 mi South 12.7 mph - 0.06 in Rain Light Rain